[[{"header":{"parameterUnit":"m.s-1","parameterCategory":1,"la1":30.2991,"la2":30.254,"lo1":-89.0895,"lo2":-89.0444,"dy":0.0017,"dx":0.0017,"nx":28,"ny":28,"refTime":"2025-01-18T03:00:00:Z","depth":0,"parameterNumber":2,"parameterNumberName":"U-component_of_WINDS"},"data":[0,0,0,0,0,0,0,0,0,0,0,0,0,0,0,0,0,0,0,0,0,0,0,0,0,0,0,0,0,0,0,0,0,0,0,0,0,0,0,0,0,0,0,0,0,0,0,0,0,0,0,0,0,0,0,0,0,0,5.2162,5.2162,0,5.223,5.223,5.2231,5.2186,5.2184,5.2182,5.218,5.2248,5.2251,5.2255,0,0,0,0,0,0,0,0,0,0,0,0,0,5.1993,5.1997,5.2161,5.2162,5.2163,5.2229,5.223,5.2231,5.2186,5.2184,5.2181,5.2179,5.2247,5.2251,5.2255,0,0,0,0,0,0,0,0,0,0,0,0,0,5.2064,5.1998,5.2161,5.2149,5.2148,5.2229,5.223,5.2232,5.2187,5.2184,5.2181,5.2178,5.2245,5.2251,5.2256,5.2352,0,0,5.2273,5.2276,0,0,0,0,0,0,0,0,5.206,5.207,5.215,5.215,5.2149,5.2196,5.2196,5.2272,5.2188,5.2172,5.218,5.2176,5.2233,5.2239,5.2259,5.2356,5.2359,5.2274,5.2277,5.2279,5.2281,0,0,0,0,0,0,0,5.2055,5.2067,5.2188,5.2151,5.2151,5.214,5.2147,5.221,5.2219,5.2173,5.217,5.2179,5.2232,5.2254,5.226,5.236,5.2273,5.2278,5.2282,5.2284,5.2543,5.2546,0,0,0,0,0,0,5.2052,5.2063,5.2186,5.219,5.2096,5.2146,5.2153,5.2184,5.2218,5.222,5.2182,5.2177,5.2246,5.2254,5.2262,5.238,5.2279,5.2285,5.2288,5.2539,5.2543,5.2547,0,0,0,0,0,0,5.2048,5.2063,5.2183,5.2126,5.2141,5.2152,5.2187,5.2187,5.2208,5.2225,5.2226,5.2202,5.2243,5.2254,5.2331,5.2381,5.2287,5.2292,5.2535,5.254,5.2545,5.2614,0,0,0,0,0,0,5.2044,5.2062,5.2098,5.2127,5.2144,5.2251,5.219,5.2191,5.2218,5.2213,5.2244,5.2246,5.2242,5.2323,5.2337,5.2387,5.2297,5.253,5.2537,5.2544,5.2607,5.2621,5.2633,0,0,0,0,0,5.2038,5.2114,5.21,5.2115,5.219,5.2254,5.2264,5.2258,5.2223,5.226,5.2271,5.2245,5.2374,5.2332,5.2346,5.2399,5.2527,5.2535,5.2543,5.2602,5.2618,5.2632,0,0,0,0,0,0,5.2089,5.2117,5.2103,5.219,5.2221,5.2246,5.2293,5.2275,5.2315,5.2308,5.2299,5.2306,5.2387,5.2401,5.2353,5.2496,5.2445,5.2456,5.2484,5.25,5.2513,5.2508,5.2301,0,0,0,0,0,5.2111,5.2161,5.2183,5.2258,5.2274,5.2281,5.2309,5.2303,5.2333,5.2345,5.2361,5.2391,5.2439,5.247,5.2515,5.2609,5.2617,5.2653,5.2666,5.2676,5.2686,5.274,5.2758,5.2573,5.2573,5.2573,0,0,5.2155,5.2177,5.2209,5.2269,5.2291,5.2344,5.2292,5.2349,5.2388,5.2353,5.2428,5.2441,5.2474,5.2562,5.26,5.2575,5.2739,5.2686,5.2695,5.2699,5.275,5.2768,5.2783,5.2578,5.2577,5.2577,0,0,5.2265,5.2286,5.2352,5.2377,5.2412,5.2417,5.2433,5.2462,5.2471,5.2545,5.2521,5.2568,5.2649,5.2675,5.2699,5.2822,5.2801,5.2837,5.2903,5.2955,5.297,5.2983,5.3029,5.3045,5.2846,5.2847,5.2847,0,5.2316,5.2394,5.2388,5.2449,5.2477,5.2449,5.2517,5.2541,5.2589,5.2609,5.258,5.2685,5.2705,5.2799,5.2829,5.2849,5.2868,5.2833,5.2968,5.2981,5.2993,5.3037,5.3054,5.2851,5.285,5.285,5.2849,0,5.2457,5.2512,5.2561,5.2611,5.2644,5.2708,5.2712,5.2747,5.2739,5.2747,5.2825,5.2849,5.2899,5.2921,5.2912,5.3015,5.2998,5.2969,5.2918,5.3015,5.3056,5.3073,5.2857,5.2855,5.2854,5.2853,0,0,5.2598,5.2645,5.2664,5.2687,5.2726,5.2768,5.2832,5.2882,5.2914,5.2948,5.3002,5.3074,5.3048,5.3075,5.307,5.3116,5.3215,5.3081,5.3082,5.3107,5.3333,5.3355,5.3374,5.3201,5.3205,5.3207,5.333,0,5.2711,5.2822,5.282,5.2924,5.2976,5.2953,5.3008,5.3039,5.3049,5.3095,5.3106,5.3158,5.3119,5.3136,5.318,5.3194,5.326,5.3184,5.3253,5.3255,5.3246,5.3395,5.3418,5.3533,5.3346,5.3349,5.3351,0,5.2856,5.2898,5.3008,5.3042,5.3064,5.3114,5.3162,5.3206,5.3241,5.3245,5.3278,5.3265,5.3331,5.3278,5.337,5.3319,5.3347,5.3358,5.3362,5.3369,5.3309,5.3407,5.357,5.3587,5.3375,5.3373,5.3372,0,5.2951,5.3035,5.3112,5.3132,5.3173,5.321,5.3228,5.326,5.3292,5.3334,5.3354,5.3403,5.343,5.3468,5.347,5.3431,5.3564,5.351,5.357,5.3571,5.3599,5.3597,5.377,5.3616,5.3616,5.3615,5.3615,0,5.3078,5.3146,5.3155,5.3203,5.328,5.3277,5.3353,5.3369,5.3398,5.3449,5.3431,5.3479,5.3478,5.3528,5.353,5.3607,5.3619,5.3625,5.3625,5.3627,5.3627,5.3645,5.3638,5.362,5.3619,5.3618,5.3617,0,5.3196,5.3205,5.3288,5.3321,5.3331,5.3386,5.3415,5.3461,5.347,5.3535,5.355,5.3565,5.3623,5.3629,5.3695,5.3697,5.3791,5.3781,5.378,5.3778,5.3839,5.3834,5.403,5.4056,5.3884,5.3886,5.3887,0,5.3276,5.3329,5.3369,5.3402,5.3424,5.3477,5.351,5.351,5.3546,5.3591,5.3632,5.3688,5.3733,5.3827,5.3844,5.3895,5.3888,5.3953,5.3895,5.3897,5.3891,5.3888,5.3895,5.3965,5.3966,5.3968,5.3969,0,5.3419,5.3422,5.347,5.3521,5.3562,5.3602,5.3639,5.3667,5.3673,5.3713,5.3773,5.3808,5.3878,5.3934,5.3986,5.4005,5.399,5.3988,5.4005,5.4008,5.4005,5.4009,5.3811,5.3983,5.3982,5.3981,5.398,5.3979,5.3522,5.3569,5.3605,5.366,5.3689,5.3726,5.3771,5.3788,5.3838,5.3895,5.3892,5.3959,5.3995,5.4062,5.4086,5.4139,5.4117,5.4141,5.4147,5.4153,5.4161,5.3997,5.4148,5.4147,5.4147,5.4147,5.4147,0,5.3665,5.3688,5.3739,5.3794,5.3838,5.382,5.3861,5.3899,5.3958,5.3994,5.4039,5.4109,5.4165,5.4188,5.4243,5.428,5.4275,5.4295,5.4292,5.4298,5.4176,5.4156,5.4299,5.4299,5.4299,5.4299,5.4299,5.4299,5.3745,5.3824,5.3832,5.3926,5.3948,5.4013,5.4039,5.4073,5.4102,5.4181,5.4228,5.4243,5.4274,5.4331,5.4382,5.4388,5.4409,5.4434,5.4436,5.4321,5.4306,5.4291,5.4273,5.4438,5.4438,5.4554,5.4555,5.4555]},{"header":{"parameterUnit":"m.s-1","parameterCategory":1,"la1":30.2991,"la2":30.254,"lo1":-89.0895,"lo2":-89.0444,"dy":0.0017,"dx":0.0017,"nx":28,"ny":28,"refTime":"2025-01-18T03:00:00:Z","depth":0,"parameterNumber":3,"parameterNumberName":"V-component_of_WINDS"},"data":[0,0,0,0,0,0,0,0,0,0,0,0,0,0,0,0,0,0,0,0,0,0,0,0,0,0,0,0,0,0,0,0,0,0,0,0,0,0,0,0,0,0,0,0,0,0,0,0,0,0,0,0,0,0,0,0,0,0,-6.1105,-6.1105,0,-6.1123,-6.1123,-6.1123,-6.1049,-6.1047,-6.1045,-6.1043,-6.1059,-6.1062,-6.1064,0,0,0,0,0,0,0,0,0,0,0,0,0,-6.1006,-6.1008,-6.1105,-6.1105,-6.1105,-6.1123,-6.1123,-6.1123,-6.105,-6.1047,-6.1044,-6.1042,-6.1059,-6.1061,-6.1064,0,0,0,0,0,0,0,0,0,0,0,0,0,-6.1039,-6.1009,-6.1105,-6.1071,-6.1068,-6.1123,-6.1123,-6.1123,-6.105,-6.1047,-6.1044,-6.1041,-6.1058,-6.1061,-6.1065,-6.1153,0,0,-6.1076,-6.1078,0,0,0,0,0,0,0,0,-6.1037,-6.1042,-6.1075,-6.1073,-6.107,-6.108,-6.1094,-6.1133,-6.1051,-6.1057,-6.1043,-6.1039,-6.1069,-6.1071,-6.1082,-6.1154,-6.1154,-6.1076,-6.1079,-6.108,-6.1081,0,0,0,0,0,0,0,-6.1035,-6.1041,-6.1112,-6.1076,-6.1073,-6.1054,-6.1055,-6.1101,-6.1081,-6.1056,-6.1051,-6.1054,-6.1067,-6.1079,-6.1082,-6.1155,-6.1076,-6.108,-6.1082,-6.1083,-6.1301,-6.1304,0,0,0,0,0,0,-6.1037,-6.104,-6.1111,-6.1112,-6.1045,-6.1059,-6.106,-6.108,-6.108,-6.1077,-6.1057,-6.105,-6.1074,-6.1078,-6.1082,-6.1185,-6.108,-6.1084,-6.1086,-6.1297,-6.1301,-6.1305,0,0,0,0,0,0,-6.1035,-6.1044,-6.1111,-6.1075,-6.1082,-6.1064,-6.1088,-6.1082,-6.1094,-6.1081,-6.1077,-6.1073,-6.1071,-6.1077,-6.1136,-6.1185,-6.1085,-6.1089,-6.1293,-6.1298,-6.1303,-6.1393,0,0,0,0,0,0,-6.1033,-6.1044,-6.1077,-6.1076,-6.1084,-6.1165,-6.109,-6.1085,-6.1101,-6.1093,-6.1094,-6.1092,-6.1069,-6.1131,-6.114,-6.1188,-6.1092,-6.1288,-6.1295,-6.1302,-6.1386,-6.1401,-6.1414,0,0,0,0,0,-6.103,-6.1101,-6.1079,-6.1088,-6.1125,-6.1168,-6.1172,-6.1146,-6.1105,-6.1138,-6.113,-6.1092,-6.1179,-6.1138,-6.1147,-6.1197,-6.1285,-6.1293,-6.1301,-6.1379,-6.1398,-6.1413,0,0,0,0,0,0,-6.1107,-6.11,-6.1076,-6.115,-6.116,-6.1155,-6.1196,-6.1166,-6.1187,-6.1179,-6.1145,-6.1146,-6.1211,-6.121,-6.1165,-6.1283,-6.1225,-6.1235,-6.1281,-6.1299,-6.1312,-6.1311,-6.1095,0,0,0,0,0,-6.1133,-6.1169,-6.1161,-6.1226,-6.1233,-6.1214,-6.1232,-6.1211,-6.122,-6.1223,-6.1219,-6.1229,-6.1259,-6.1279,-6.1305,-6.1386,-6.1385,-6.1425,-6.1439,-6.1451,-6.146,-6.1503,-6.152,-6.1332,-6.1331,-6.1331,0,0,-6.1187,-6.1187,-6.1212,-6.1242,-6.1248,-6.1285,-6.1218,-6.126,-6.1287,-6.1229,-6.1285,-6.1283,-6.1292,-6.1363,-6.1393,-6.1364,-6.1512,-6.1461,-6.147,-6.1473,-6.1513,-6.1531,-6.1547,-6.1337,-6.1336,-6.1335,0,0,-6.1303,-6.1308,-6.1363,-6.1371,-6.138,-6.1368,-6.1381,-6.1382,-6.1378,-6.1434,-6.1392,-6.1424,-6.1475,-6.1484,-6.1495,-6.1617,-6.1582,-6.1627,-6.17,-6.1742,-6.1757,-6.177,-6.1814,-6.183,-6.1636,-6.1636,-6.1636,0,-6.1368,-6.1423,-6.1395,-6.1441,-6.1455,-6.1406,-6.1462,-6.1471,-6.1489,-6.15,-6.1467,-6.1531,-6.1534,-6.1606,-6.1636,-6.1647,-6.1661,-6.1625,-6.1757,-6.177,-6.1782,-6.1823,-6.1839,-6.1641,-6.1641,-6.164,-6.164,0,-6.1502,-6.1542,-6.1585,-6.1605,-6.1625,-6.1675,-6.1655,-6.1678,-6.1656,-6.1647,-6.1706,-6.1707,-6.1733,-6.1749,-6.1728,-6.1819,-6.18,-6.1763,-6.1704,-6.1806,-6.1844,-6.1859,-6.1649,-6.1647,-6.1645,-6.1644,0,0,-6.1666,-6.1672,-6.1688,-6.1697,-6.1705,-6.1735,-6.1784,-6.181,-6.1831,-6.1846,-6.1886,-6.1932,-6.1898,-6.1911,-6.189,-6.1927,-6.2024,-6.1885,-6.1885,-6.1911,-6.2125,-6.2153,-6.2172,-6.2002,-6.2005,-6.2007,-6.2124,0,-6.178,-6.1864,-6.1841,-6.1925,-6.1961,-6.1916,-6.1959,-6.1968,-6.1962,-6.1991,-6.1983,-6.2017,-6.1969,-6.1977,-6.2012,-6.2005,-6.2067,-6.1996,-6.2038,-6.204,-6.2037,-6.2191,-6.222,-6.2331,-6.2139,-6.2142,-6.2143,0,-6.1924,-6.1946,-6.2033,-6.2037,-6.2051,-6.209,-6.2113,-6.2142,-6.2153,-6.2145,-6.2161,-6.2133,-6.2181,-6.2123,-6.2189,-6.2141,-6.2157,-6.2157,-6.216,-6.2162,-6.2097,-6.2197,-6.2365,-6.2382,-6.2167,-6.2165,-6.2163,0,-6.2035,-6.2086,-6.2145,-6.2154,-6.216,-6.2188,-6.2192,-6.2199,-6.2217,-6.2238,-6.2249,-6.2275,-6.2289,-6.231,-6.229,-6.2249,-6.2359,-6.2298,-6.2354,-6.2354,-6.2378,-6.2376,-6.255,-6.239,-6.2389,-6.2389,-6.2389,0,-6.2164,-6.2219,-6.2195,-6.2231,-6.2292,-6.2266,-6.2327,-6.2325,-6.2333,-6.2368,-6.2331,-6.2364,-6.2336,-6.2368,-6.2352,-6.2409,-6.2416,-6.2411,-6.2406,-6.2414,-6.2415,-6.2423,-6.2415,-6.2394,-6.2393,-6.2392,-6.2391,0,-6.2297,-6.2283,-6.2344,-6.2346,-6.2348,-6.2392,-6.2393,-6.2427,-6.2419,-6.2464,-6.2473,-6.246,-6.2495,-6.2477,-6.2513,-6.2503,-6.2577,-6.2562,-6.2574,-6.2569,-6.2625,-6.262,-6.281,-6.2834,-6.2659,-6.2661,-6.2662,0,-6.2379,-6.2421,-6.2428,-6.2449,-6.2456,-6.2491,-6.251,-6.2486,-6.2507,-6.2523,-6.2555,-6.2588,-6.2612,-6.267,-6.2664,-6.2691,-6.2676,-6.2741,-6.268,-6.2687,-6.2677,-6.2674,-6.2679,-6.2753,-6.2755,-6.2757,-6.2758,0,-6.2528,-6.252,-6.2548,-6.2576,-6.26,-6.262,-6.2636,-6.2656,-6.2633,-6.2659,-6.2695,-6.2714,-6.2752,-6.2784,-6.2809,-6.2812,-6.2782,-6.2778,-6.2792,-6.28,-6.2805,-6.2803,-6.2606,-6.2773,-6.2772,-6.277,-6.277,-6.2769,-6.2638,-6.2673,-6.2684,-6.2718,-6.2728,-6.2745,-6.2778,-6.2774,-6.2804,-6.2834,-6.2818,-6.2861,-6.2871,-6.2901,-6.2909,-6.2942,-6.2916,-6.2936,-6.2941,-6.2947,-6.2954,-6.2801,-6.2946,-6.2946,-6.2945,-6.2945,-6.2944,0,-6.2784,-6.2789,-6.2821,-6.2846,-6.2873,-6.2844,-6.2861,-6.2885,-6.2924,-6.2937,-6.2962,-6.3004,-6.3036,-6.3033,-6.3062,-6.3089,-6.3076,-6.3097,-6.3095,-6.3096,-6.2976,-6.296,-6.3108,-6.3108,-6.3108,-6.3108,-6.3108,-6.3108,-6.2863,-6.2922,-6.2915,-6.2979,-6.2984,-6.3026,-6.3038,-6.3054,-6.3064,-6.3113,-6.314,-6.3138,-6.3145,-6.3175,-6.3203,-6.3201,-6.3213,-6.324,-6.3233,-6.3121,-6.3104,-6.3089,-6.3074,-6.3243,-6.3243,-6.3351,-6.3352,-6.3352]}]]